Tracking 31027 objects as of 19-Jul-2025
HD Live streaming from Space Station
objects crossing your sky now

PEGASUS DEB

Track PEGASUS DEB now!
10-day predictions


NORAD ID: 25442
Int'l Code: 1994-029ADX
Perigee: 556.2 km
Apogee: 859.9 km
Inclination: 81.8 °
Period: 98.8 minutes
Semi major axis: 7079 km
RCS: 0.0116 m2 (small)
Launch date: May 19, 1994
Source: United States (US)
Launch site: AIR FORCE WESTERN TEST RANGE (AFWTR)

Note: This is SATELLITE DEBRIS
Your satellite tracking list
ARIANE 5 R/B
Track 1 satellite(s)




NASA's NSSDC Master Catalog

Two Line Element Set (TLE):
1 25442U 94029ADX 25198.24794262  .00004517  00000-0  71860-3 0  9994
2 25442  81.7560 294.5800 0214505 231.5609 126.6168 14.57616993503613
Source of the keplerian elements: AFSPC